1487498400.73,39945,12.63,73418.5,9.47,-35.59,-36.01,0,*7B
1487498401.93,39946,12.63,73420.8,9.47,-35.59,-36.01,0,*78
1487498403.16,39947,12.63,73420.3,9.47,-35.29,-35.65,0,*7F
1487498404.35,39948,12.63,73422.0,9.47,-35.59,-36.07,0,*70
1487498405.57,39949,12.63,73420.0,9.49,-35.29,-35.59,0,*70
1487498406.82,39950,12.63,73422.0,9.49,-34.89,-35.23,0,*7E
1487498408.07,39951,12.63,73420.8,9.53,-34.53,-34.89,0,*72
1487498409.32,39952,12.63,73420.8,9.55,-34.83,-35.23,0,*7B
1487498410.54,39953,12.63,73420.5,9.55,-35.71,-36.25,0,*73
1487498411.74,39954,12.63,73424.0,9.55,-35.29,-35.59,0,*71
1487498412.93,39955,12.63,73418.3,9.55,-35.17,-35.47,0,*72
1487498414.19,39956,12.63,73418.3,9.57,-35.35,-35.77,0,*70
1487498415.43,39957,12.63,73420.3,9.57,-35.35,-35.71,0,*77
1487498416.65,39958,12.63,73422.5,9.57,-35.71,-36.07,0,*7A
1487498417.9,39959,12.63,73420.5,9.57,-36.13,-36.67,0,*7A
1487498419.13,39960,12.63,73418.3,9.55,-36.07,-36.49,0,*7B
1487498420.38,39961,12.63,73420.8,9.57,-36.25,-36.73,0,*71
1487498421.64,39962,12.63,73420.3,9.57,-35.47,-35.95,0,*7E
1487498422.91,39963,12.63,73418.5,9.57,-36.49,-36.91,0,*75
1487498424.16,39964,12.63,73422.0,9.57,-36.43,-36.91,0,*78
1487498425.38,39965,12.63,73422.3,9.55,-35.77,-36.13,0,*75
1487498426.6,39966,12.63,73420.0,9.57,-35.17,-35.59,0,*7F
1487498427.82,39967,12.63,73418.3,9.57,-36.31,-36.85,0,*7B
1487498429.08,39968,12.63,73422.3,9.57,-36.85,-37.39,0,*7D
1487498430.36,39969,12.63,73420.3,9.57,-37.09,-37.63,0,*76
1487498431.61,39970,12.63,73416.8,9.57,-35.59,-35.95,0,*72
1487498432.86,39971,12.63,73422.5,9.55,-35.95,-36.49,0,*73
1487498434.11,39972,12.63,73422.3,9.57,-37.57,-37.99,0,*72
1487498435.31,39973,12.63,73422.8,9.55,-37.45,-38.17,0,*7B
1487498436.53,39974,12.63,73420.3,9.55,-36.67,-37.09,0,*7D
1487498437.78,39975,12.63,73416.5,9.55,-36.61,-37.09,0,*7A
1487498439.0,39976,12.63,73420.5,9.55,-36.49,-37.03,0,*79
1487498440.2,39977,12.63,73418.3,9.55,-36.73,-37.27,0,*77
1487498441.43,39978,12.63,73422.0,9.55,-36.07,-36.25,0,*78
1487498442.62,39979,12.63,73422.3,9.55,-36.43,-37.03,0,*7C
1487498443.88,39980,12.63,73420.3,9.53,-35.95,-36.55,0,*76
1487498445.1,39981,12.63,73422.0,9.55,-35.71,-36.13,0,*79
1487498446.32,39982,12.63,73420.3,9.55,-35.71,-36.13,0,*7A
1487498447.57,39983,12.63,73418.3,9.55,-35.53,-35.95,0,*76
1487498448.79,39984,12.63,73420.8,9.57,-35.71,-36.07,0,*7B
1487498449.99,39985,12.63,73420.8,9.55,-35.77,-36.43,0,*7E
1487498451.27,39986,12.63,73418.5,9.57,-36.25,-36.49,0,*71
1487498452.49,39987,12.63,73420.0,9.55,-36.31,-36.91,0,*72
1487498453.69,39988,12.63,73420.5,9.55,-37.27,-37.75,0,*70
1487498454.94,39989,12.63,73418.5,9.57,-37.45,-37.99,0,*75
1487498456.13,39990,12.63,73422.3,9.55,-36.85,-37.27,0,*77
1487498457.39,39991,12.63,73422.3,9.55,-36.91,-37.39,0,*7C
1487498458.59,39992,12.63,73420.3,9.55,-36.31,-36.67,0,*7F
1487498459.79,39993,12.63,73422.0,9.55,-36.31,-36.73,0,*7B
1487498461.03,39994,12.63,73418.8,9.55,-36.13,-36.61,0,*7F
1487498462.25,39995,12.63,73420.8,9.55,-36.49,-36.73,0,*72
1487498463.45,39996,12.63,73422.8,9.55,-36.73,-37.27,0,*78
1487498464.67,39997,12.63,73420.5,9.55,-36.31,-36.61,0,*7C
1487498465.89,39998,12.63,73420.5,9.55,-36.13,-36.43,0,*73
1487498467.11,39999,12.63,73420.3,9.55,-36.07,-36.49,0,*7D
1487498468.34,40000,12.63,73420.3,9.55,-36.31,-36.49,0,*7F
1487498469.53,40001,12.63,73416.3,9.55,-37.03,-37.75,0,*70
1487498470.76,40002,12.63,73418.5,9.55,-39.09,-39.71,0,*7D
1487498472.01,40003,12.63,73418.0,9.53,-38.23,-38.55,0,*74
1487498473.26,40004,12.63,73416.8,9.53,-36.37,-36.73,0,*72
1487498474.51,40005,12.63,73420.0,9.49,-35.71,-36.25,0,*7A
1487498475.76,40006,12.63,73416.8,9.53,-35.77,-36.13,0,*71
1487498476.99,40007,12.63,73422.0,9.49,-35.89,-36.43,0,*7F
1487498478.26,40008,12.63,73420.5,9.53,-36.37,-36.91,0,*72
1487498479.51,40009,12.63,73418.8,9.53,-37.33,-37.81,0,*76
1487498480.78,40010,12.63,73416.0,9.53,-35.41,-35.65,0,*71
1487498482.0,40011,12.63,73418.3,9.53,-35.59,-36.31,0,*7B
1487498483.24,40012,12.63,73418.8,9.55,-35.53,-35.95,0,*79
1487498484.47,40013,12.63,73416.8,9.55,-35.35,-35.77,0,*74
1487498485.71,40014,12.63,73416.8,9.55,-36.13,-36.61,0,*70
1487498486.99,40015,12.63,73416.3,9.57,-36.91,-37.39,0,*75
1487498488.21,40016,12.63,73422.5,9.55,-35.53,-35.89,0,*70
1487498489.47,40017,12.63,73420.0,9.57,-35.59,-35.95,0,*74
1487498490.74,40018,12.63,73416.8,9.57,-36.25,-36.61,0,*7B
1487498491.97,40019,12.63,73420.3,9.55,-35.77,-36.13,0,*79
1487498493.19,40020,12.63,73420.0,9.55,-35.77,-36.13,0,*73
1487498494.45,40021,12.63,73420.3,9.57,-35.59,-35.95,0,*71
1487498495.7,40022,12.63,73418.3,9.57,-35.95,-36.31,0,*7F
1487498496.93,40023,12.63,73418.3,9.57,-35.77,-36.31,0,*72
1487498498.18,40024,12.63,73416.8,9.57,-35.71,-35.95,0,*7E
1487498499.45,40025,12.63,73422.8,9.57,-36.13,-36.49,0,*7A
1487498500.7,40026,12.63,73416.8,9.57,-36.13,-36.43,0,*73
1487498501.93,40027,12.63,73422.0,9.57,-36.31,-36.67,0,*74
1487498503.13,40028,12.63,73420.5,9.59,-36.43,-37.03,0,*73
1487498504.38,40029,12.63,73420.3,9.59,-37.39,-38.11,0,*72
1487498505.66,40030,12.63,73418.3,9.57,-37.39,-37.81,0,*72
1487498506.88,40031,12.63,73420.3,9.55,-35.59,-35.95,0,*72
1487498508.1,40032,12.63,73418.8,9.55,-35.35,-35.59,0,*7B
1487498509.35,40033,12.56,73414.3,9.55,-37.39,-37.81,0,*73
1487498510.57,40034,12.63,73414.3,9.55,-38.23,-38.97,0,*78
1487498511.77,40035,12.63,73416.0,9.55,-38.05,-38.43,0,*74
1487498513.02,40036,12.63,73418.0,9.55,-36.91,-37.39,0,*76
1487498514.26,40037,12.63,73416.3,9.55,-36.61,-36.91,0,*7B
1487498515.46,40038,12.63,73418.8,9.55,-36.31,-36.67,0,*78
1487498516.67,40039,12.63,73418.3,9.55,-36.31,-36.67,0,*79
1487498517.94,40040,12.63,73416.5,9.57,-36.13,-36.49,0,*79
1487498519.19,40041,12.63,73416.3,9.55,-37.21,-37.99,0,*76
1487498520.44,40042,12.63,73422.0,9.49,-37.57,-37.93,0,*73
1487498521.71,40043,12.63,73416.3,9.53,-35.23,-35.53,0,*76
1487498522.93,40044,12.63,73416.5,9.55,-35.53,-35.77,0,*76
1487498524.15,40045,12.63,73416.5,9.55,-35.17,-35.53,0,*71
1487498525.38,40046,12.63,73422.5,9.55,-35.01,-35.35,0,*75
1487498526.61,40047,12.63,73416.8,9.57,-35.01,-35.17,0,*76
1487498527.86,40048,12.63,73416.0,9.57,-35.53,-35.89,0,*79
1487498529.08,40049,12.63,73416.0,9.57,-36.43,-36.85,0,*75
1487498530.33,40050,12.63,73416.5,9.57,-37.99,-38.61,0,*7F
1487498531.55,40051,12.63,73420.5,9.55,-38.55,-38.91,0,*7C
1487498532.8,40052,12.63,73420.3,9.53,-36.91,-37.45,0,*79
1487498534.02,40053,12.63,73422.3,9.53,-36.31,-36.73,0,*76
1487498535.29,40054,12.63,73416.3,9.53,-35.83,-36.37,0,*7B
1487498536.52,40055,12.63,73420.3,9.55,-36.25,-36.73,0,*73
1487498537.79,40056,12.63,73422.3,9.53,-36.37,-36.91,0,*79
1487498539.05,40057,12.63,73420.3,9.53,-35.59,-35.95,0,*74
1487498540.31,40058,12.63,73420.3,9.53,-35.53,-35.83,0,*76
1487498541.59,40059,12.63,73416.3,9.53,-35.53,-35.95,0,*70
1487498542.83,40060,12.63,73422.8,9.57,-35.35,-35.71,0,*74
1487498544.06,40061,12.63,73420.5,9.55,-35.77,-36.25,0,*73
1487498545.31,40062,12.63,73418.3,9.57,-35.59,-36.13,0,*7B
1487498546.53,40063,12.63,73416.0,9.57,-36.07,-36.31,0,*72
1487498547.81,40064,12.63,73416.8,9.57,-36.25,-36.61,0,*70
1487498549.06,40065,12.63,73416.5,9.57,-35.13,-35.35,0,*75
1487498550.27,40066,12.63,73418.8,9.57,-35.59,-36.07,0,*7A
1487498551.51,40067,12.63,73416.0,9.57,-35.47,-35.89,0,*71
1487498552.75,40068,12.63,73420.5,9.57,-35.13,-35.35,0,*78
1487498553.98,40069,12.63,73418.8,9.59,-35.13,-35.41,0,*74
1487498555.18,40070,12.56,73418.0,9.59,-34.89,-35.13,0,*79
1487498556.43,40071,12.63,73420.5,9.59,-34.83,-35.23,0,*71
1487498557.7,40072,12.56,73416.5,9.61,-35.41,-35.83,0,*7C
1487498558.93,40073,12.63,73416.0,9.59,-36.37,-36.85,0,*71
1487498560.17,40074,12.63,73418.5,9.63,-36.37,-36.91,0,*7A
1487498561.4,40075,12.63,73418.3,9.61,-36.19,-36.73,0,*79
1487498562.64,40076,12.63,73418.0,9.61,-36.01,-36.37,0,*73
1487498563.88,40077,12.63,73416.5,9.61,-36.01,-36.55,0,*76
1487498565.13,40078,12.63,73416.3,9.61,-35.77,-36.13,0,*79
1487498566.39,40079,12.63,73420.8,9.61,-34.71,-35.07,0,*79
1487498567.64,40080,12.63,73422.8,9.65,-35.13,-35.53,0,*7F
1487498568.89,40081,12.63,73416.5,9.65,-36.67,-37.09,0,*73
1487498570.17,40082,12.63,73418.8,9.65,-36.25,-36.49,0,*73
1487498571.39,40083,12.63,73416.8,9.63,-36.49,-36.97,0,*7D
1487498572.65,40084,12.63,73416.8,9.65,-36.13,-36.67,0,*7C
1487498573.87,40085,12.63,73416.8,9.63,-36.37,-36.73,0,*78
1487498575.12,40086,12.56,73416.8,9.63,-37.63,-38.23,0,*70
1487498576.37,40087,12.63,73416.8,9.61,-36.79,-37.27,0,*72
1487498577.57,40088,12.63,73418.5,9.59,-37.87,-38.55,0,*7C
1487498578.83,40089,12.63,73418.5,9.61,-38.05,-38.49,0,*7E
1487498580.04,40090,12.56,73416.3,9.59,-38.35,-39.03,0,*71
1487498581.29,40091,12.63,73420.5,9.57,-38.35,-38.79,0,*72
1487498582.48,40092,12.63,73418.5,9.55,-37.03,-37.45,0,*79
1487498583.7,40093,12.56,73416.5,9.55,-37.63,-38.17,0,*76
1487498584.9,40094,12.56,73416.5,9.55,-37.75,-38.35,0,*76
1487498586.16,40095,12.63,73418.5,9.55,-37.81,-37.81,0,*7C
1487498587.38,40096,12.56,73416.3,9.55,-37.93,-38.43,0,*7D
1487498588.64,40097,12.56,73418.0,9.49,-37.21,-37.57,0,*72
1487498589.89,40098,12.63,73420.3,9.49,-37.21,-37.57,0,*7D
1487498591.14,40099,12.63,73418.8,9.53,-36.01,-36.37,0,*73
1487498592.36,40100,12.56,73418.8,9.49,-36.01,-36.43,0,*7A
1487498593.59,40101,12.56,73418.3,9.53,-35.59,-36.01,0,*78
1487498594.84,40102,12.56,73416.3,9.53,-36.01,-36.37,0,*70
1487498596.11,40103,12.56,73418.3,9.53,-37.69,-38.23,0,*75
1487498597.36,40104,12.56,73418.8,9.49,-35.83,-36.19,0,*78
1487498598.63,40105,12.56,73414.8,9.53,-35.35,-35.65,0,*77
1487498599.91,40106,12.63,73418.5,9.53,-35.95,-36.49,0,*73
1487498601.15,40107,12.56,73416.3,9.53,-35.65,-36.19,0,*78
1487498602.38,40108,12.63,73418.5,9.55,-35.47,-35.95,0,*76
1487498603.59,40109,12.56,73416.3,9.55,-35.53,-36.07,0,*7A
1487498604.86,40110,12.56,73418.8,9.57,-36.13,-36.49,0,*7D
1487498606.11,40111,12.63,73418.8,9.57,-36.25,-36.73,0,*70
1487498607.34,40112,12.56,73416.5,9.57,-36.43,-36.67,0,*76
1487498608.54,40113,12.63,73420.0,9.59,-36.19,-36.43,0,*70
1487498609.79,40114,12.56,73416.3,9.57,-35.35,-35.71,0,*76
1487498611.01,40115,12.63,73420.0,9.57,-36.43,-36.73,0,*74
1487498612.21,40116,12.63,73420.0,9.59,-35.71,-36.19,0,*77
1487498613.46,40117,12.56,73416.0,9.61,-35.83,-36.19,0,*70
1487498614.69,40118,12.56,73416.3,9.61,-35.47,-36.01,0,*7E
1487498615.92,40119,12.63,73420.3,9.59,-37.21,-37.75,0,*74
1487498617.15,40120,12.63,73418.5,9.59,-36.85,-37.21,0,*70
1487498618.38,40121,12.56,73416.3,9.59,-35.41,-35.89,0,*7A
1487498619.63,40122,12.56,73416.3,9.61,-36.31,-36.91,0,*7C
1487498620.84,40123,12.56,73416.8,9.59,-37.87,-38.35,0,*7A
1487498622.07,40124,12.56,73416.5,9.59,-37.33,-37.93,0,*71
1487498623.29,40125,12.56,73418.0,9.59,-37.03,-37.51,0,*7D
1487498624.57,40126,12.56,73418.3,9.57,-36.25,-36.49,0,*7D
1487498625.8,40127,12.56,73416.3,9.57,-35.77,-36.07,0,*72
1487498627.07,40128,12.56,73418.8,9.61,-35.41,-35.95,0,*75
1487498628.31,40129,12.63,73420.5,9.61,-36.73,-37.15,0,*7C
1487498629.54,40130,12.56,73418.3,9.59,-36.25,-36.55,0,*79
1487498630.79,40131,12.56,73420.0,9.59,-36.25,-36.61,0,*7F
1487498631.99,40132,12.56,73420.0,9.59,-36.43,-36.97,0,*75
1487498633.22,40133,12.56,73418.5,9.59,-36.85,-37.21,0,*72
1487498634.42,40134,12.56,73418.5,9.59,-37.33,-37.57,0,*78
1487498635.65,40135,12.56,73418.5,9.59,-36.67,-37.21,0,*78
1487498636.85,40136,12.56,73420.0,9.59,-37.33,-37.75,0,*7A
1487498638.07,40137,12.56,73416.5,9.55,-38.91,-39.09,0,*75
1487498639.31,40138,12.56,73416.0,9.55,-39.79,-40.53,0,*7C
1487498640.53,40139,12.56,73416.3,9.55,-38.79,-39.35,0,*72
1487498641.77,40140,12.56,73418.3,9.49,-38.91,-39.47,0,*72
1487498643.02,40141,12.56,73418.0,9.49,-38.91,-39.65,0,*73
1487498644.23,40142,12.56,73416.5,9.47,-38.73,-39.41,0,*74
1487498645.46,40143,12.63,73420.5,9.45,-37.03,-37.57,0,*76
1487498646.71,40144,12.56,73418.3,9.47,-37.51,-37.93,0,*7C
1487498647.93,40145,12.56,73418.5,9.47,-36.85,-37.39,0,*75
1487498649.16,40146,12.56,73418.5,9.47,-37.51,-37.87,0,*7B
1487498650.44,40147,12.56,73418.5,9.45,-36.25,-36.61,0,*73
1487498651.69,40148,12.56,73416.5,9.45,-36.07,-36.13,0,*79
1487498652.92,40149,12.56,73416.5,9.49,-36.55,-36.97,0,*7F
1487498654.14,40150,12.56,73422.5,9.47,-36.61,-37.15,0,*75
1487498655.39,40151,12.56,73422.5,9.47,-37.93,-38.49,0,*7E
1487498656.61,40152,12.56,73420.5,9.45,-37.03,-37.45,0,*75
1487498657.81,40153,12.56,73418.5,9.47,-36.43,-36.85,0,*7E
1487498659.06,40154,12.56,73416.3,9.47,-37.93,-38.67,0,*77
1487498660.29,40155,12.56,73418.3,9.45,-36.67,-37.03,0,*73
1487498661.48,40156,12.56,73418.5,9.47,-36.55,-37.03,0,*73
1487498662.74,40157,12.56,73418.8,9.45,-37.09,-37.57,0,*79
1487498663.97,40158,12.56,73422.0,9.45,-37.03,-37.57,0,*7C
1487498665.23,40159,12.56,73420.5,9.45,-37.81,-38.43,0,*7D
1487498666.48,40160,12.56,73420.3,9.45,-36.91,-37.45,0,*7E
1487498667.74,40161,12.56,73418.8,9.43,-37.21,-37.81,0,*7B
1487498668.97,40162,12.56,73418.3,9.41,-37.87,-38.61,0,*77
1487498670.23,40163,12.56,73420.0,9.43,-37.51,-37.63,0,*72
1487498671.48,40164,12.56,73418.5,9.43,-36.79,-37.21,0,*78
1487498672.72,40165,12.56,73418.0,9.43,-37.63,-38.35,0,*79
1487498674.0,40166,12.56,73416.3,9.41,-38.49,-38.79,0,*77
1487498675.25,40167,12.56,73418.0,9.41,-36.13,-36.55,0,*77
1487498676.48,40168,12.56,73422.3,9.43,-36.43,-36.79,0,*71
1487498677.71,40169,12.56,73420.5,9.43,-36.61,-37.03,0,*7C
1487498678.96,40170,12.56,73418.8,9.41,-37.63,-38.17,0,*7F
1487498680.21,40171,12.56,73418.5,9.41,-37.63,-38.05,0,*7D
1487498681.48,40172,12.56,73420.3,9.39,-38.49,-39.03,0,*71
1487498682.73,40173,12.56,73420.0,9.41,-37.45,-37.81,0,*78
1487498683.96,40174,12.63,73422.8,9.41,-36.67,-36.97,0,*78
1487498685.2,40175,12.56,73418.8,9.39,-37.39,-38.05,0,*79
1487498686.42,40176,12.56,73418.8,9.39,-37.15,-37.57,0,*7C
1487498687.69,40177,12.56,73418.5,9.39,-36.91,-37.51,0,*76
1487498688.89,40178,12.56,73422.5,9.37,-35.77,-36.07,0,*7E
1487498690.14,40179,12.56,73416.5,9.41,-36.37,-36.85,0,*73
1487498691.37,40180,12.56,73418.8,9.41,-36.73,-37.15,0,*7D
1487498692.62,40181,12.56,73416.5,9.41,-37.09,-37.45,0,*75
1487498693.85,40182,12.56,73416.8,9.41,-35.71,-36.01,0,*7A
1487498695.09,40183,12.56,73420.3,9.41,-36.31,-36.55,0,*7D
1487498696.36,40184,12.56,73416.5,9.41,-35.53,-35.83,0,*75
1487498697.58,40185,12.56,73418.3,9.43,-35.01,-35.29,0,*71
1487498698.78,40186,12.56,73416.5,9.43,-35.89,-36.43,0,*7D
1487498700.04,40187,12.56,73422.3,9.43,-36.91,-37.21,0,*73
1487498701.29,40188,12.56,73418.8,9.45,-36.61,-37.03,0,*75
1487498702.57,40189,12.56,73420.3,9.45,-35.95,-36.37,0,*7A
1487498703.79,40190,12.56,73416.8,9.45,-36.43,-36.85,0,*73
1487498705.04,40191,12.56,73416.0,9.45,-35.71,-36.13,0,*7F
1487498706.27,40192,12.56,73416.8,9.47,-36.37,-36.73,0,*79
1487498707.49,40193,12.56,73418.0,9.47,-37.27,-37.81,0,*74
1487498708.77,40194,12.56,73416.3,9.45,-37.63,-37.99,0,*78
1487498710.0,40195,12.56,73416.0,9.45,-36.31,-36.67,0,*7F
1487498711.23,40196,12.56,73414.3,9.45,-36.31,-36.85,0,*70
1487498712.5,40197,12.56,73416.8,9.45,-35.65,-36.13,0,*7C
1487498713.71,40198,12.56,73416.8,9.47,-35.65,-36.07,0,*74
1487498714.91,40199,12.56,73416.8,9.47,-35.71,-36.19,0,*7F
1487498716.11,40200,12.56,73418.8,9.47,-36.07,-36.55,0,*76
1487498717.37,40201,12.56,73418.5,9.47,-35.83,-36.25,0,*7F
1487498718.59,40202,12.56,73418.5,9.47,-36.25,-36.73,0,*70
1487498719.82,40203,12.56,73420.0,9.47,-36.37,-36.73,0,*72
1487498721.02,40204,12.56,73416.8,9.47,-36.19,-36.55,0,*7D
1487498722.27,40205,12.56,73416.8,9.49,-35.65,-35.89,0,*78
1487498723.5,40206,12.56,73416.0,9.49,-36.07,-36.43,0,*79
1487498724.73,40207,12.56,73420.3,9.49,-35.59,-36.01,0,*76
1487498725.96,40208,12.56,73416.5,9.49,-35.59,-35.89,0,*7A
1487498727.23,40209,12.56,73414.3,9.49,-36.37,-36.79,0,*7C
1487498728.48,40210,12.56,73418.3,9.49,-36.19,-36.61,0,*71
1487498729.76,40211,12.56,73418.5,9.49,-37.21,-37.99,0,*7C
1487498730.99,40212,12.56,73416.0,9.49,-36.43,-36.73,0,*7F
1487498732.21,40213,12.56,73418.8,9.49,-37.03,-37.57,0,*7C
1487498733.46,40214,12.56,73418.3,9.49,-36.25,-36.73,0,*79
1487498734.71,40215,12.56,73418.8,9.49,-36.43,-36.79,0,*72
1487498735.94,40216,12.56,73416.5,9.49,-36.43,-36.73,0,*7B
1487498737.2,40217,12.56,73418.0,9.49,-36.25,-36.55,0,*7E
1487498738.43,40218,12.56,73420.8,9.49,-36.01,-36.55,0,*77
1487498739.65,40219,12.56,73420.0,9.53,-36.97,-37.33,0,*73
1487498740.9,40220,12.56,73420.5,9.49,-36.55,-36.79,0,*73
1487498742.13,40221,12.56,73416.0,9.53,-36.73,-37.27,0,*77
1487498743.38,40222,12.56,73418.3,9.49,-36.25,-36.55,0,*78
1487498744.61,40223,12.56,73416.0,9.49,-37.33,-37.75,0,*7C
1487498745.84,40224,12.56,73416.8,9.49,-37.87,-38.35,0,*7F
1487498747.04,40225,12.56,73416.0,9.47,-37.33,-37.57,0,*74
1487498748.26,40226,12.56,73416.3,9.47,-38.05,-38.67,0,*71
1487498749.52,40227,12.56,73422.3,9.45,-37.21,-37.57,0,*77
1487498750.8,40228,12.56,73418.5,9.45,-37.39,-37.63,0,*76
1487498752.05,40229,12.56,73418.5,9.45,-37.09,-37.57,0,*73
1487498753.33,40230,12.56,73418.5,9.45,-36.91,-37.39,0,*73
1487498754.56,40231,12.56,73418.0,9.43,-36.91,-37.45,0,*7F
1487498755.82,40232,12.56,73420.0,9.43,-37.09,-37.39,0,*77
1487498757.04,40233,12.56,73418.0,9.45,-36.43,-36.85,0,*79
1487498758.29,40234,12.56,73422.3,9.45,-37.57,-37.99,0,*76
1487498759.56,40235,12.56,73422.3,9.43,-37.09,-37.63,0,*7F
1487498760.81,40236,12.56,73418.8,9.41,-37.27,-37.51,0,*73
1487498762.06,40237,12.56,73418.8,9.41,-37.09,-37.45,0,*7B
1487498763.31,40238,12.56,73416.3,9.41,-37.45,-37.81,0,*74
1487498764.54,40239,12.56,73416.5,9.41,-36.97,-37.33,0,*72
1487498765.79,40240,12.56,73418.0,9.39,-37.21,-37.57,0,*7D
1487498767.04,40241,12.56,73416.3,9.39,-36.91,-37.33,0,*74
1487498768.27,40242,12.56,73420.5,9.39,-37.33,-37.69,0,*71
1487498769.55,40243,12.56,73416.5,9.39,-36.91,-37.21,0,*75
1487498770.79,40244,12.56,73422.8,9.39,-36.73,-37.21,0,*7E
1487498772.02,40245,12.56,73416.5,9.39,-36.73,-37.15,0,*78
1487498773.24,40246,12.56,73416.3,9.39,-36.97,-37.33,0,*75
1487498774.47,40247,12.56,73416.5,9.37,-37.87,-38.29,0,*7E
1487498775.71,40248,12.56,73416.3,9.37,-38.49,-39.03,0,*75
1487498776.97,40249,12.56,73416.8,9.33,-37.63,-37.99,0,*7A
1487498778.19,40250,12.56,73418.3,9.35,-37.27,-37.75,0,*76
1487498779.38,40251,12.56,73420.5,9.33,-38.35,-38.97,0,*7E
1487498780.64,40252,12.56,73418.0,9.33,-37.81,-38.29,0,*78
1487498781.86,40253,12.56,73418.3,9.33,-37.57,-37.93,0,*7C
1487498783.12,40254,12.56,73418.0,9.31,-37.27,-37.63,0,*71
1487498784.37,40255,12.56,73416.0,9.33,-37.39,-37.81,0,*71
1487498785.62,40256,12.56,73418.5,9.27,-37.75,-38.23,0,*78
1487498786.88,40257,12.56,73418.8,9.27,-38.29,-38.85,0,*73
1487498788.08,40258,12.56,73416.0,9.25,-39.91,-40.47,0,*7D
1487498789.31,40259,12.56,73416.8,9.25,-37.87,-38.23,0,*78
1487498790.59,40260,12.56,73416.5,9.23,-37.99,-38.29,0,*71
1487498791.85,40261,12.56,73418.3,9.23,-37.81,-38.35,0,*74
1487498793.11,40262,12.56,73414.8,9.21,-37.99,-38.29,0,*71
1487498794.34,40263,12.56,73416.5,9.21,-37.27,-37.81,0,*78
1487498795.57,40264,12.56,73418.5,9.21,-37.99,-38.35,0,*7A
1487498796.83,40265,12.56,73416.3,9.21,-37.81,-38.11,0,*74
1487498798.05,40266,12.56,73416.0,9.19,-38.05,-38.17,0,*79
1487498799.28,40267,12.56,73414.0,9.17,-38.61,-38.91,0,*7A
1487498800.55,40268,12.56,73420.0,9.15,-37.69,-38.11,0,*78
1487498801.8,40269,12.56,73416.8,9.15,-38.23,-38.61,0,*7F
1487498803.02,40270,12.56,73418.3,9.15,-37.57,-38.05,0,*79
1487498804.27,40271,12.56,73418.3,9.15,-37.87,-38.23,0,*71
1487498805.52,40272,12.56,73416.3,9.15,-37.09,-37.33,0,*7A
1487498806.74,40273,12.56,73418.3,9.15,-37.33,-37.75,0,*70
1487498808.02,40274,12.56,73416.3,9.15,-38.29,-38.91,0,*76
1487498809.22,40275,12.56,73418.3,9.13,-38.55,-38.97,0,*7C
1487498810.47,40276,12.56,73416.5,9.11,-38.23,-38.61,0,*75
1487498811.73,40277,12.56,73418.8,9.11,-37.81,-38.17,0,*72
1487498812.93,40278,12.56,73420.3,9.09,-38.17,-38.61,0,*75
1487498814.14,40279,12.56,73416.3,9.09,-38.17,-38.55,0,*73
1487498815.41,40280,12.56,73416.0,9.05,-38.11,-38.49,0,*72
1487498816.65,40281,12.56,73420.5,9.05,-38.61,-39.23,0,*79
1487498817.89,40282,12.56,73418.3,9.05,-37.69,-38.05,0,*78
1487498819.14,40283,12.56,73418.3,9.03,-37.93,-38.29,0,*74
1487498820.36,40284,12.56,73420.5,9.01,-38.85,-39.35,0,*75
1487498821.62,40285,12.56,73418.8,9.01,-37.81,-38.17,0,*7E
1487498822.83,40286,12.56,73416.5,8.99,-39.29,-39.85,0,*7B
1487498824.1,40287,12.56,73416.5,8.97,-39.41,-39.97,0,*79
1487498825.35,40288,12.56,73416.0,8.97,-38.43,-38.79,0,*74
1487498826.59,40289,12.56,73418.0,8.93,-38.73,-39.03,0,*7E
1487498827.84,40290,12.56,73418.8,8.93,-38.29,-38.85,0,*76
1487498829.07,40291,12.56,73416.8,8.91,-40.09,-40.65,0,*79
1487498830.33,40292,12.56,73418.8,8.89,-40.15,-40.41,0,*78
1487498831.58,40293,12.56,73416.8,8.89,-38.55,-38.91,0,*70
1487498832.83,40294,12.56,73416.0,8.85,-38.11,-38.43,0,*74
1487498834.08,40295,12.56,73412.8,8.85,-37.69,-38.05,0,*77
1487498835.32,40296,12.56,73416.0,8.85,-38.97,-39.59,0,*72
1487498836.55,40297,12.56,73416.3,8.81,-38.55,-38.85,0,*79
1487498837.8,40298,12.56,73418.0,8.85,-37.63,-38.05,0,*70
1487498839.08,40299,12.56,73416.0,8.81,-37.99,-38.29,0,*7E
1487498840.33,40300,12.56,73414.5,8.85,-37.33,-37.63,0,*7A
1487498841.54,40301,12.56,73416.8,8.79,-37.87,-38.17,0,*7B
1487498842.74,40302,12.56,73418.8,8.79,-39.35,-39.85,0,*75
1487498844.01,40303,12.56,73416.5,8.75,-39.29,-39.79,0,*76
1487498845.28,40304,12.56,73418.5,8.75,-39.29,-39.53,0,*79
1487498846.51,40305,12.56,73414.8,8.73,-37.51,-37.87,0,*78
1487498847.76,40306,12.56,73418.8,8.75,-37.75,-38.23,0,*7A
1487498849.01,40307,12.56,73418.5,8.73,-37.99,-38.29,0,*75
1487498850.26,40308,12.56,73418.8,8.71,-38.11,-38.35,0,*7A
1487498851.53,40309,12.56,73416.0,8.71,-38.49,-39.03,0,*72
1487498852.78,40310,12.56,73418.3,8.71,-38.11,-38.35,0,*73
1487498854.05,40311,12.56,73418.0,8.71,-39.03,-39.29,0,*7C
1487498855.26,40312,12.56,73418.3,8.69,-38.61,-38.97,0,*77
1487498856.52,40313,12.56,73416.8,8.67,-37.81,-38.17,0,*71
1487498857.75,40314,12.56,73418.3,8.67,-38.61,-39.09,0,*79
1487498859.0,40315,12.56,73416.3,8.67,-38.61,-38.79,0,*7E
1487498860.25,40316,12.56,73416.0,8.63,-38.17,-38.49,0,*7B
1487498861.49,40317,12.56,73418.0,8.65,-37.69,-37.87,0,*77
1487498862.77,40318,12.56,73418.5,8.63,-37.51,-37.81,0,*73
1487498864.04,40319,12.56,73422.3,8.63,-38.23,-38.67,0,*7F
1487498865.27,40320,12.56,73416.5,8.63,-38.61,-38.97,0,*7C
1487498866.53,40321,12.56,73416.5,8.59,-36.97,-37.21,0,*71
1487498867.78,40322,12.56,73416.5,8.59,-37.39,-37.57,0,*76
1487498869.03,40323,12.56,73418.8,8.59,-37.39,-37.75,0,*77
1487498870.29,40324,12.56,73416.0,8.57,-39.15,-39.29,0,*79
1487498871.54,40325,12.56,73416.8,8.57,-38.79,-39.15,0,*7C
1487498872.8,40326,12.56,73416.8,8.57,-38.79,-39.15,0,*7F
1487498874.08,40327,12.56,73416.3,8.55,-39.71,-40.09,0,*76
1487498875.31,40328,12.56,73416.0,8.53,-38.85,-39.03,0,*71
1487498876.54,40329,12.56,73416.8,8.51,-37.45,-37.87,0,*73
1487498877.79,40330,12.56,73414.5,8.51,-37.27,-37.63,0,*75
1487498879.02,40331,12.56,73416.8,8.51,-36.85,-37.03,0,*7B
1487498880.25,40332,12.56,73418.3,8.49,-36.73,-37.09,0,*72
1487498881.45,40333,12.56,73418.8,8.49,-37.33,-37.87,0,*70
1487498882.7,40334,12.56,73418.0,8.51,-38.05,-38.49,0,*79
1487498883.98,40335,12.56,73418.3,8.51,-37.69,-38.23,0,*71
1487498885.21,40336,12.56,73418.3,8.49,-38.29,-38.55,0,*71
1487498886.44,40337,12.56,73416.0,8.49,-36.91,-37.27,0,*77
1487498887.7,40338,12.5,73412.0,8.47,-37.99,-38.35,0,*73
1487498888.95,40339,12.56,73416.0,8.47,-38.55,-38.91,0,*73
1487498890.19,40340,12.5,73412.5,8.45,-37.81,-38.17,0,*77
1487498891.39,40341,12.56,73416.0,8.45,-36.97,-37.33,0,*79
1487498892.65,40342,12.5,73414.0,8.47,-37.57,-37.81,0,*7C
1487498893.85,40343,12.56,73416.5,8.45,-37.33,-37.57,0,*76
1487498895.05,40344,12.56,73414.8,8.45,-37.15,-37.45,0,*76
1487498896.28,40345,12.56,73416.0,8.45,-36.79,-37.15,0,*79
1487498897.51,40346,12.56,73416.3,8.45,-37.63,-38.17,0,*7D
1487498898.73,40347,12.56,73418.0,8.41,-38.61,-38.73,0,*77
1487498900.01,40348,12.56,73416.0,8.41,-36.91,-36.91,0,*7B
1487498901.28,40349,12.56,73416.5,8.41,-36.61,-36.91,0,*75
1487498902.56,40350,12.56,73418.5,8.41,-39.23,-39.59,0,*7F
1487498903.75,40351,12.56,73418.8,8.39,-37.57,-37.75,0,*7C